sat.trackr.live / text

‹ back to catalog

STARLINK-31712

NORAD 59491 · 2024-071H

PAYLOAD ACTIVE UNKNOWN

§ Identity

Operator
Country
US
Launch date
2024-04-13
Launch site
AFETR
Launch vehicle
Mass (kg)
RCS (m²)

Purposes: comms

External: N2YO · Heavens-Above · Gunter

§ Orbital elements

Epoch: 2026-05-25T01:26:58.655040Z

Period
94.27 min
Inclination
42.9971°
Eccentricity
0.0001200
Mean motion
15.27583331 rev/d
Perigee alt
482.2 km
Apogee alt
483.9 km
Semi-major
6,861.2 km
B*
5.2802e-4
RAAN
279.8565°
Arg perigee
276.3796°
Mean anomaly
83.6919°
Rev number
11,975

§ Raw data

STARLINK-317121 59491U 24071H   26145.06040110  .00014298  00000+0  52802-3 0  99952 59491  42.9971 279.8565 0001200 276.3796  83.6919 15.27583331119754

JSON: /api/v1/satellites/59491 · /tle

For live sub-satellite position, see the globe view (requires WebGL).

§ Visibility from observer

Set your observer location to see the next 7 days of passes ≥ 10°. The values pass through the URL so the page stays shareable.

No JS? Fill the form by hand. The geolocation button needs JavaScript.